Regional Weather Roundup
Issued by NWS

Home | Current Version | Previous Version | Text Only | Print | Product List | Glossary On
Versions: 1 2 3 4 5 6 7 8 9 10 11 12 13 14 15 16 17 18 19 20 21 22 23 24 25 26 27 28 29 30 31 32 33 34 35 36 37 38 39 40 41 42 43 44 45 46 47 48 49 50
000
ASHW40 PHFO 050643
RWRHI

WEATHER ROUNDUP FOR HAWAII
NATIONAL WEATHER SERVICE HONOLULU HI
800 PM HST FRI SEP 04 2015

THIS IS AN AUTOMATED REPORT THAT HAS NOT BEEN QUALITY CONTROLLED.

NOTE..."FAIR" INDICATES FEW OR NO CLOUDS BELOW 12,000 FEET WITH NO
SIGNIFICANT WEATHER AND/OR OBSTRUCTIONS TO VISIBILITY.

* - THESE SITES REPORT LIMITED FIELDS

HIZ001>004-050700-
KAUAI-NIIHAU-

CITY           SKY/WX    TMP DP  RH WIND       PRES   REMARKS
LIHUE APT      CLOUDY    80  74  81 SE7       29.87R
PORT ALLEN*    NOT AVBL
POIPU*           N/A     81 N/A N/A NE5G10      N/A
PRINCEVILLE*     N/A     73 N/A N/A MISG        N/A
KOKOLE POINT*  NOT AVBL
MOLOAA DAIRY*    N/A     79  73  83 SE5G12      N/A
WAIMEA HTS*      N/A     77  72  83 CALM        N/A
PUU OPAE*        N/A     72  66  83 NE3         N/A
PUU LUA*       NOT AVBL
MAKAHA RIDGE*    N/A     72  70  94 CALM        N/A
$$

HIZ005>011-050700-
OAHU-

CITY           SKY/WX    TMP DP  RH WIND       PRES   REMARKS
HONOLULU       PTCLDY    82  72  69 NE8       29.86R
KALAELOA       CLEAR     79  73  82 NE3       29.86R
KANEOHE MCB    PTCLDY    79  72  79 VRB3      29.84R
WHEELER FIELD  FAIR      77  71  84 SE2       29.87R
BELLOWS*         N/A    N/A N/A N/A NE12        N/A
KAHUKU*          N/A    N/A N/A N/A E7          N/A
WHEELER*       NOT AVBL
WAIANAE HARBOR NOT AVBL
DILLINGHAM*      N/A     79  75  89 MISG        N/A
KAHUKU TRN*      N/A     77  72  83 E5G13       N/A
KAWAILOA*        N/A     75  70  83 E8          N/A
KII*             N/A     81  75  83 E10         N/A
MAKUA RANGE*     N/A     79  73  83 SE2         N/A
OAHU FOREST NW   N/A     70  70 100 CALM        N/A
SCHOFIELD BRK*   N/A     73  68  83 MISG        N/A
SCHOFIELD S*   NOT AVBL
WAIANAE VLY*     N/A     86  82  89 MISG        N/A  HX 105
KUAOKALA*        N/A     77  72  83 SE3         N/A
HONOULIUULI*   NOT AVBL
MOKUOLOE IS*     N/A    N/A N/A N/A MISG        N/A
PALEHUA*         N/A     70  68  94 NE6G13      N/A
WAIAWA PHB*    NOT AVBL
$$

HIZ012>013-050700-
MOLOKAI-

CITY           SKY/WX    TMP DP  RH WIND       PRES   REMARKS
MOLOKAI AIRPT  CLEAR     76  71  85 NE8       29.87R
KALAUPAPA      NOT AVBL
MAKAPULAPAI*     N/A     79  72  78 E12         N/A
MOLOKAI 1*       N/A     79  73  83 NE1         N/A
PUU ALII*        N/A     63  63  99 CALM        N/A
$$

HIZ016-050700-
KAHOOLAWE-

CITY           SKY/WX    TMP DP  RH WIND       PRES   REMARKS
KAHOOLAWE*       N/A     73 N/A N/A E12G17      N/A
HAKIOAWA*        N/A     76  73  89 MISG        N/A
HONOKANAIA*      N/A     81  71  72 NE8G14    29.77R
KANELOA*         N/A     79  73  83 NE12G17   29.91
KEALIALALO*      N/A     77  72  83 E12G20    29.87R
LUA MAKIKA*    NOT AVBL
$$

HIZ014>015-050700-
LANAI-

CITY           SKY/WX    TMP DP  RH WIND       PRES   REMARKS
LANAI CITY     FAIR      74  71  91 NE16      29.92R
LANAI 1*         N/A     73  72  94 NE15        N/A
$$

HIZ017>028-050700-
MAUI-

CITY           SKY/WX    TMP DP  RH WIND       PRES   REMARKS
KAHULUI        PTCLDY    80  71  74 NE9       29.86R
KAPALUA-W MAUI NOT AVBL
HANA AIRPORT   MOCLDY    75  73  94 CALM      29.91R
HANA*            N/A     79 N/A N/A SW1         N/A
HALEAKALA SUMM   N/A     48  34  57 NE9         N/A
MAALAEA BAY*   NOT AVBL
HALEAKALA*     NOT AVBL
KAUPO GAP*       N/A     64  63  94 CALM        N/A
KULA 1*          N/A     54  51  88 E6          N/A
$$

HIZ023>026-050700-
BIG ISLAND OF HAWAII COAST AND LOWER SLOPES-

CITY           SKY/WX    TMP DP  RH WIND       PRES   REMARKS
KAILUA KONA    MOCLDY    82  75  79 SE12      29.82R
HILO           CLOUDY    80  73  79 NW5       29.87R
HONOKAA*       NOT AVBL
KAWAIHAE MWT*    N/A     86 N/A N/A NW6         N/A
KAWAIHAE*        N/A     84 N/A N/A NE2       29.83R
SOUTH POINT*     N/A     75 N/A N/A NE1         N/A
UPOLU AIRPORT*   N/A    N/A N/A N/A NE12        N/A
KAMUELA*       NOT AVBL
HAKALAU*         N/A     55  40  56 W3          N/A
KALOKO-HONOKO*   N/A     79  75  89 E5        29.82R
PALI 2*          N/A     70  68  94 NW3         N/A
KEALAKOMO*       N/A     64  52  63 NE12G18     N/A
KAUPULEHU*       N/A     75  68  78 SE6         N/A
KAPAPALA*        N/A     71  71  98 W1G7        N/A
LOWER KAHUKU*    N/A     68  68 100 CALM        N/A
PUHE CS*         N/A     84  70  61 W3          N/A
PUHO CS*         N/A     74  32  21 NE3         N/A
PTA KEAMUKU*     N/A     64  63  94 CALM        N/A
WAIKOLOA*        N/A     73  68  83 E12         N/A
$$

HIZ027>028-050700-
BIG ISLAND OF HAWAII INTERIOR AND SUMMMITS-

CITY           SKY/WX    TMP DP  RH WIND       PRES   REMARKS
BRADSHAW FIELD PTCLDY    59  56  90 SE5       30.23R
MK VISITOR CEN   N/A     50  45  81 VRB2        N/A
MAUNA KEA*     NOT AVBL
MAUNA LOA*       N/A     45  43  93 MISG        N/A
MAUNA LOA 1*   NOT AVBL
PTA KIPUKA*      N/A     61  59  94 E2          N/A
PTA RANGE 17*    N/A     61  55  82 E1          N/A
PTA WEST*        N/A     61  59  94 SE7         N/A
NENE CABIN*      N/A     61  52  72 W1          N/A
AHUMOA*          N/A     56  51  83 E3          N/A
PTA PORTABLE*  NOT AVBL
PUU MALI*        N/A     59  34  38 NE2G12      N/A
$$

HIC003-050700-
NORTHWEST ISLANDS-

CITY           SKY/WX    TMP DP  RH WIND       PRES   REMARKS
MIDWAY ISLAND  CLOUDY    81  75  83 NE8       29.90R
MIDWAY NOS*      N/A     81 N/A N/A MISG      29.89R
FRENCH FRIGATE NOT AVBL
$$

PHZ110>124-180-050700-
BUOY REPORTS

STATION/POSITION TIME  TEMP    WIND        PRES    WAVE   SWELL
                       AIR SEA DIR/SP/G            HT/PER HT/DIR
                 (UTC) (F)     (DEG/KT/KT) (MB)    (FT/S) (FT/D)
BUOY 51001       0559   81 83   40/  8/ 10 1011.0
BUOY 51101       0600   81 83   40/ 10/ 12 1010.2R   8/11   8/110
BUOY 51100       NOT AVBL
BUOY 51002       0600   83 85   90/ 10/ 12 1010.1R  10/14  10/100
BUOY 51003       0600   83 86  120/  4/  6 1010.2R   7/17   7/160
BUOY 51004       0503   82 83  360/ 12/ 14 1009.6R  12/13  11/ 70
BARBERS PT BUOY  NOT AVBL
WAIMEA BAY BUOY  0600      83                N/A     4/10   2/ 10
KAILUA BAY BUOY  0600      83                N/A     8/13   7/ 80
LANAI BUOY       NOT AVBL
BARBERS PT 2     0600      83                N/A     4/17   3/190
PAUWELA MAUI     0600      82                N/A    11/13  10/ 90
HILO             NOT AVBL
KANEOHE BAY BUOY 0600      82                N/A     6/14   3/ 70
HANALEI KAUAI    0600      84                N/A     9/13   7/ 90
KAHULUI HARBOR   0600           40/  8/ 13   N/A
HONOLULU HARBOR  0600           60/  4/  7   N/A
KILO NALU        NOT AVBL
HILO HARBOR      0600          300/  5/  7   N/A
MOKUOLOE         0600   81 86   80/  7/  9 1011.1R
NAWILIWILI       0600   78 84  260/  5/  7 1011.5R
WHOTS BUOY       NOT AVBL
BUOY 51028       NOT AVBL
$$

......................KEY........................................
  SKY/WX - SKY CONDITIONS/PRESENT WEATHER
  TMP    - TEMPERATURE IN FAHRENHEIT
  DWPT   - DEWPOINT IN FAHRENHEIT
  RH     - RELATIVE HUMIDITY IN PERCENT
  WIND   - DIRECTION AND SPEED /MPH FOR ISLANDS...KTS FOR BUOYS/
  PRES   - MEAN SEA LEVEL PRESSURE IN INCHES OF HG
  VSB    - VISIBILITY IN MILES
  HX     - HEAT INDEX
  WCI    - WIND CHILL INDEX
  VRB    - VARIABLE WIND DIRECTION
  N/A    - NOT AVAILABLE



USA.gov is the U.S. government's official web portal to all federal, state and local government web resources and services.